User: anonymous   Login
Location: Unspecified
(0.0000°N, 0.0000°E)
Time: 17:18:27
(UTC+00:00)
Language:

ELEKTRO-L 2 - Orbit

View from above orbital plane
View from above orbital plane
View from above satellite
View from above satellite

Ground track
Ground track

The orbit data is extracted from the following two-line orbital elements,

1 41105U 15074A   21336.43798980 -.00000098  00000-0  00000-0 0  9999
2 41105   2.4939  90.4247 0002682 124.6459 359.6602  1.00271158 21891
Epoch (UTC): 02 December 2021 10:30:42
Eccentricity: 0.0002682
inclination: 2.4939°
perigee height: 35775 km
apogee height: 35798 km
right ascension of ascending node: 90.4247°
argument of perigee: 124.6459°
revolutions per day: 1.00271158
mean anomaly at epoch: 359.6602°
orbit number at epoch: 2189

The dashed part of the orbit path shows where the satellite is in the earth's shadow,  

DLR